Regional Weather Roundup
Issued by NWS

Home | Current Version | Previous Version | Text Only | Print | Product List | Glossary Off
Versions: 1 2 3 4 5 6 7 8 9 10 11 12 13 14 15 16 17 18 19 20 21 22 23 24 25 26 27 28 29 30 31 32 33 34 35 36 37 38 39 40 41 42 43 44 45 46 47 48 49 50

000
ASUS43 KLMK 280802
RWRKY
KENTUCKY REGIONAL WEATHER ROUNDUP
NATIONAL WEATHER SERVICE LOUISVILLE KY
400 AM EDT TUE JUL 28 2015

NOTE "FAIR" INDICATES FEW OR NO CLOUDS BELOW 12,000 FEET
WITH NO SIGNIFICANT WEATHER AND/OR OBSTRUCTIONS TO VISIBILITY.

KYZ001>023-026-027-061>063-070>075-280900-
WESTERN AND SOUTH CENTRAL KENTUCKY

CITY           SKY/WX    TMP DP  RH WIND       PRES   REMARKS
PADUCAH        MOCLDY    76  74  93 CALM      29.93F
HENDERSON      MOCLDY    72  70  94 CALM      29.93S
OWENSBORO      MOCLDY    75  73  93 CALM      29.95S
HOPKINSVILLE   CLOUDY    77  73  88 W2        29.95F
BOWLING GREEN  CLOUDY    76  72  87 CALM      29.96F
GLASGOW        NOT AVBL
$$

KYZ024-025-028>034-038-045-046-053-280900-
NORTH CENTRAL KENTUCKY

CITY           SKY/WX    TMP DP  RH WIND       PRES   REMARKS
LOUISVILLE/SDF CLOUDY    79  75  87 E3        29.95R HAZE
LOUISVILLE/LOU PTCLDY    78  74  87 SE5       29.96S
FORT KNOX      CLOUDY    75  74  96 W1        29.96R FOG
$$

KYZ035>037-039>044-047>052-055>060-089>105-280900-
NORTHEAST KENTUCKY

CITY           SKY/WX    TMP DP  RH WIND       PRES   REMARKS
LEXINGTON      MOCLDY    73  70  90 N3        29.98F
COVINGTON      MOCLDY    74  72  93 CALM      29.97F FOG
FRANKFORT      PTCLDY    72  69  90 CALM      29.96F
$$

KYZ054-064>069-076>088-106>120-280900-
SOUTHEAST KENTUCKY

CITY           SKY/WX    TMP DP  RH WIND       PRES   REMARKS
JACKSON        MOCLDY    73  71  93 CALM      30.01F FOG
LONDON         MOCLDY    72  68  87 CALM      30.01S FOG
SOMERSET       NOT AVBL
MIDDLESBORO    CLOUDY    71  71 100 CALM      30.02S FOG
MONTICELLO     MOSUNNY   73  73 100 CALM      30.02F FOG
$$




USA.gov is the U.S. government's official web portal to all federal, state and local government web resources and services.